This is the latest recevied weather packets stored in our database for station/object DO1SN-13. If no packets are shown the sender has not sent any weather packets the latest 10 day(s).
| Time | Temp. | Humidity | Pressure | Rain* | Wind** | Luminosity | Snow |
|---|---|---|---|---|---|---|---|
| 1787628496 | 17.22° C | - | 1013.3 hPa | 0 mm | - | - | - |
| 1787628132 | 17.22° C | - | 1013.4 hPa | 0 mm | - | - | - |
| 1787627768 | 17.22° C | - | 1013.5 hPa | 0 mm | - | - | - |
| 1787627403 | 17.78° C | - | 1013.6 hPa | 0 mm | - | - | - |
| 1787627039 | 18.33° C | - | 1013.7 hPa | 0 mm | - | - | - |
| 1787626675 | 17.78° C | - | 1013.8 hPa | 0 mm | - | - | - |
| 1787626311 | 17.22° C | - | 1013.8 hPa | 0 mm | - | - | - |
| 1787625947 | 17.78° C | - | 1013.8 hPa | 0 mm | - | - | - |
| 1787625583 | 18.33° C | - | 1013.6 hPa | 0 mm | - | - | - |
| 1787625219 | 18.89° C | - | 1013.7 hPa | 0 mm | - | - | - |
| 1787624854 | 19.44° C | - | 1013.9 hPa | 0 mm | - | - | - |
| 1787624490 | 19.44° C | - | 1014 hPa | 0 mm | - | - | - |
| 1787624126 | 19.44° C | - | 1014 hPa | 0 mm | - | - | - |
| 1787623762 | 17.78° C | - | 1014.1 hPa | 0 mm | - | - | - |
| 1787623398 | 17.78° C | - | 1014.2 hPa | 0 mm | - | - | - |
| 1787623034 | 17.22° C | - | 1014.2 hPa | 0 mm | - | - | - |
| 1787622670 | 17.22° C | - | 1014.3 hPa | 0 mm | - | - | - |
| 1787622306 | 17.78° C | - | 1014.3 hPa | 0 mm | - | - | - |
| 1787621941 | 18.33° C | - | 1014.2 hPa | 0 mm | - | - | - |
| 1787621577 | 18.33° C | - | 1014.2 hPa | 0 mm | - | - | - |
| 1787621213 | 17.78° C | - | 1014.2 hPa | 0 mm | - | - | - |
| 1787620848 | 18.33° C | - | 1014.2 hPa | 0 mm | - | - | - |
| 1787620484 | 18.33° C | - | 1014.1 hPa | 0 mm | - | - | - |
| 1787620120 | 17.78° C | - | 1014.1 hPa | 0 mm | - | - | - |
| 1787619755 | 18.89° C | - | 1014 hPa | 0 mm | - | - | - |
* Rain latest hour (hover to see other rain measurements)
** Current wind speed in m/s (hover to see current wind gust speed)